Tracking 29892 objects as of 21-Nov-2024
HD Live streaming from Space Station
objects crossing your sky now

SL-16 DEB

Track SL-16 DEB now!
10-day predictions


NORAD ID: 22442
Int'l Code: 1992-093EK
Perigee: 690.6 km
Apogee: 854.3 km
Inclination: 71.1 °
Period: 100.1 minutes
Semi major axis: 7143 km
RCS: 0.0128 m2 (small)
Launch date: December 25, 1992
Source: Commonwealth of Independent States (former USSR) (CIS)
Launch site: TYURATAM MISSILE AND SPACE COMPLEX (TTMTR)

Note: This is SATELLITE DEBRIS
Your satellite tracking list
Your tracking list is empty




NASA's NSSDC Master Catalog

Two Line Element Set (TLE):
1 22442U 92093EK  24325.95542173  .00016083  00000-0  49349-2 0  9998
2 22442  71.1031 304.7938 0114601 252.5574 106.3007 14.37943867636459
Source of the keplerian elements: AFSPC